784  
ASUS41 KPHI 230812  
RWRPHI  
 
REGIONAL WEATHER ROUNDUP  
NATIONAL WEATHER SERVICE MOUNT HOLLY NJ  
400 AM EDT FRI APR 23 2021  
 
NOTE: "FAIR" INDICATES FEW OR NO CLOUDS BELOW 12,000 FEET WITH NO  
SIGNIFICANT WEATHER AND/OR S TO VISIBILITY
.  
 
* = STATION DOES NOT REPORT PRECIPITATION (E.G. RAIN, SNOW, ETC.)  
OR FOG.
 
 
NJZ015>026-230900-  
SOUTHERN NEW JERSEY  
 
CITY SKY/WX TMP DP RH WIND PRES REMARKS
 
POMONA CLEAR 41 21 44 W12 30.04S  
WILDWOOD* CLEAR 46 25 43 W17G23 30.08R  
MILLVILLE CLEAR 38 25 59 W9 30.07R WCI 31  
WRIGHTSTOWN CLOUDY 40 21 47 W9 30.03R WCI 33  
MOUNT HOLLY CLEAR 41 21 44 W7 30.04R  
TRENTON CLOUDY 40 21 46 W7 30.01R  
 

 
NJZ001>014-230900-  
NORTHERN NEW JERSEY  
 
CITY SKY/WX TMP DP RH WIND PRES REMARKS
 
SUSSEX CLEAR 37 20 50 W6 29.98R WCI 32  
ANDOVER* N/A 37 20 50 VRB3 29.99R  
MORRISTOWN PTCLDY 39 23 52 W10 30.00R WCI 32  
NEWARK MOCLDY 43 23 45 NW13 30.00R  
TETERBORO CLEAR 39 22 50 NW15G23 29.98R WCI 31  
CALDWELL CLEAR 40 20 44 NW12 30.00R WCI 33  
SOMERVILLE MOCLDY 41 22 46 NW10 29.99R  
ALLAIRE* CLEAR 39 21 48 W9 30.02R WCI 33  
TOMS RIVER* CLOUDY 34 22 61 W3 30.04R  
 

 
PAZ043-044-047-054-055-060>062-066>071-230900-  
EASTERN PENNSYLVANIA  
 
CITY SKY/WX TMP DP RH WIND PRES REMARKS
 
PHILADELPHIA PTCLDY 39 22 50 W14 30.05R WCI 31  
NORTH PHILA CLEAR 39 21 48 W8 30.05R WCI 33  
BLUE BELL* CLEAR 37 21 51 W5 30.04R WCI 34  
DOYLESTOWN CLOUDY 40 20 44 W7 30.02R  
QUAKERTOWN* CLEAR 37 21 52 W12 30.02R WCI 30  
PERKASIE* PTSUNNY 37 19 48 W13G20 30.02R WCI 29  
POTTSTOWN CLEAR 37 19 48 CALM 30.05R  
LANCASTER CLEAR 34 21 59 CALM 30.06R  
COATESVILLE CLEAR 36 23 60 W10 30.05S WCI 28  
WEST CHESTER FAIR 37 23 56 W9 30.04S WCI 31  
READING CLEAR 36 22 56 NW7 30.03S WCI 30  
ALLENTOWN MOCLDY 39 22 50 W12 30.02R WCI 32  
QN CITY/ALNTWN CLOUDY 39 23 52 W9 30.04R WCI 33  
MOUNT POCONO PTCLDY 30 21 69 W16G25 29.93R WCI 19  
HAZLETON PTCLDY 32 21 64 W6 30.01R WCI 26  
LEHIGHTON FAIR 37 23 56 W5 30.03R WCI 34  
WILKES BARRE PTCLDY 35 24 64 SW5 29.99R WCI 31  
 

 
DEZALL-MDZ008-012-015-019-020-230900-  
DELAWARE AND EASTERN MARYLAND  
 
CITY SKY/WX TMP DP RH WIND PRES REMARKS
 
WILMINGTON CLEAR 37 22 54 W9 30.07R WCI 30  
DOVER CLEAR 36 24 60 SW7 30.08R WCI 31  
CHESWOLD SUNNY 37 25 60 W5 30.09R WCI 34  
GEORGETOWN CLEAR 37 27 67 CALM 30.09S  
EASTON CLEAR 42 28 59 NW3 30.14R  
ABERDEEN CLEAR 32 25 76 SW3 30.09S  
PATUXENT CLEAR 42 33 70 W7 30.13R  
OCEAN CITY PTCLDY 38 28 67 MISG 30.11R  
WALLOPS ISLAND CLEAR 42 30 62 W5 30.12R  
CAMBRIDGE CLEAR 41 30 65 W5 30.12R  
SALISBURY CLEAR 35 28 75 W6 30.11R WCI 30  
 

 
PAZ001-021-NYZ056-072-MDZ011-DCZ001-230900-  
OTHER NEARBY LOCATIONS  
 
CITY SKY/WX TMP DP RH WIND PRES REMARKS
 
HARRISBURG CLEAR 42 23 46 W5 30.06R  
STATE COLLEGE CLEAR 30 23 74 W5 30.04S WCI 25  
WILLIAMSPORT CLEAR 33 24 69 W7 30.04R WCI 27  
BINGHAMTON CLEAR 28 20 71 W9 29.93R WCI 19  
NEW YORK CITY PTCLDY 41 22 46 VRB7 30.01R  
BALTIMORE CLEAR 36 25 64 W6 30.10R WCI 31  
WASHINGTON DC CLEAR 40 28 62 W7 30.13R  
 

 
 
 
CLICK HERE TO GO TO PREVIOUS BULLETINS.

The Nexlab PA Page
The Nexlab NJ Page
The Nexlab DE Page
The Nexlab MD Page Main Text Page